Flag for Canada Weather past 2 weeks in Resolute Bay, Nunavut, Canada

Now
46 °F

Overcast.


Feels Like: 40 °F
Forecast: 42 / 47 °F
Wind: 16 mph from Southeast

Location: Resolute

Current Time: Aug 3, 2015 at 3:41:35 AM

Latest Report: Aug 3, 2015 at 3:00 AM


Visibility: 15 mi

Pressure: 30.06 "Hg

Humidity: 76%

Dew point: 39 °F

Location of Resolute BayLocation

Historic Weather in Resolute Bay — Graph

°F

Resolute Bay temperature yesterday

Maximum temperature yesterday: 52 °F (at 6:00 PM)
Minimum temperature yesterday: 41 °F (at 12:00 AM)
Average temperature yesterday: 46 °F

Past Weeks' High & Low Weather Summary

 TemperatureHumidityPressure
High63 °F (Jul 22, 3:00 PM)100% (Jul 30, 4:00 AM)30.24 "Hg (Jul 30, 4:00 AM)
Low36 °F (Jul 30, 4:00 AM)39% (Jul 25, 3:00 PM)29.85 "Hg (Jul 27, 5:00 AM)
Average49 °F68%30.04 "Hg
* Reported Jul 19 2:00 AM — Aug 3 2:00 AM, Resolute Bay, Weather by CustomWeather, © 2015

Note: Actual official high and low records may vary slightly from our data, if they occured in-between our weather recording intervals... More about our weather records

Advertising

Resolute Bay weather history for previous 24 hours

 ConditionsComfort  
Time TempWeatherWind HumidityBarometerVisibility
2:00 AM
Mon, Aug 3
46 °FLight rain. Overcast.13 mph76%30.06 "Hg15 mi
1:00 AM46 °FLight rain. Overcast.16 mph82%30.06 "Hg15 mi
12:52 AM46 °FLight rain. Overcast.15 mph82%30.06 "Hg15 mi
12:00 AM50 °FLight rain. Overcast.15 mph67%30.06 "Hg12 mi
11:00 PM
Sun, Aug 2
46 °FLight rain. Overcast.8 mph76%30.06 "Hg15 mi
10:00 PM48 °FLight rain. Mostly cloudy.12 mph62%30.06 "Hg15 mi
9:00 PM46 °FLight rain. Overcast.15 mph71%30.07 "Hg15 mi
8:00 PM50 °FScattered showers. Overcast.14 mph58%30.06 "Hg15 mi
7:00 PM52 °FPartly sunny.17 mph54%30.06 "Hg15 mi
6:00 PM52 °FScattered clouds.15 mph58%30.06 "Hg15 mi
5:00 PM50 °FPassing clouds.18 mph62%30.06 "Hg15 mi
4:00 PM50 °FPassing clouds.17 mph58%30.06 "Hg15 mi
3:00 PM48 °FPassing clouds.23 mph62%30.06 "Hg15 mi
2:00 PM50 °FPassing clouds.20 mph58%30.06 "Hg15 mi
1:00 PM50 °FPassing clouds.18 mph58%30.06 "Hg15 mi
12:00 PM48 °FPassing clouds.21 mph66%30.06 "Hg15 mi
11:00 AM46 °FPassing clouds.22 mph66%30.06 "Hg15 mi
10:00 AM45 °FPassing clouds.22 mph71%30.07 "Hg15 mi
9:00 AM45 °FPassing clouds.21 mph71%30.08 "Hg12 mi
8:00 AM45 °FPassing clouds.21 mph71%30.08 "Hg12 mi
7:00 AM43 °FSunny.10 mph81%30.09 "Hg12 mi
6:00 AM45 °FSunny.14 mph71%30.08 "Hg12 mi
5:00 AM43 °FSunny.15 mph76%30.08 "Hg12 mi
4:00 AM41 °FPassing clouds.18 mph81%30.08 "Hg10 mi
3:00 AM41 °FPassing clouds.23 mph81%30.08 "Hg10 mi
Weather by CustomWeather, © 2015

See weather overviewHow to use our weather pages